Regional Weather Roundup
Issued by NWS Cleveland, OH

Home | Current Version | Previous Version | Graphics & Text | Print | Product List | Glossary On
Versions: 1 2 3 4 5 6 7 8 9 10 11 12 13 14 15 16 17 18 19 20 21 22 23 24 25 26 27 28 29 30 31 32 33 34 35 36 37 38 39 40 41 42 43 44 45 46 47 48 49 50
874
ASUS41 KCLE 060100
RWRCLE
OHIO REGIONAL WEATHER ROUNDUP
NATIONAL WEATHER SERVICE WILMINGTON, OH
800 PM EST FRI FEB 05 2016

NOTE: "FAIR" INDICATES FEW OR NO CLOUDS BELOW 12,000 FEET WITH NO
SIGNIFICANT WEATHER AND/OR OBSTRUCTIONS TO VISIBILITY.

OHZ001>008-015>018-024>027-034-035-043-044-060200-
   NORTHWEST OHIO

CITY           SKY/WX    TMP DP  RH WIND       PRES   REMARKS
DEFIANCE       FAIR      33  22  63 W6        30.33F WCI  28
FINDLAY        FAIR      34  26  72 W9        30.32R WCI  27
TOLEDO EXPRESS MOCLDY    33  24  69 W7        30.32S WCI  27
TOLEDO EXEC    MOCLDY    35  24  64 W8        30.32S WCI  29
LIMA           FAIR      32  26  78 W12       30.33R WCI  23
$$

OHZ009>014-019>023-028>033-038-089-060200-
   NORTHEAST OHIO

CITY           SKY/WX    TMP DP  RH WIND       PRES   REMARKS
CLE-HOPKINS    CLOUDY    34  20  56 S5        30.36F WCI  30
CLE-LAKEFRONT  CLOUDY    37  21  52 S8        30.34F
CUY CO. ARPT   CLOUDY    34  21  60 S7        30.34F WCI  28
LORAIN-ELYRIA  CLOUDY    34  20  56 S7        30.33F WCI  28
ASHTABULA      FAIR      27  17  66 SE6       30.35F WCI  20
AKRON-CANTON   FAIR      27  17  66 S8        30.34F WCI  19
WOOSTER        NOT AVBL
MANSFIELD      CLOUDY    33  20  58 S10       30.31F WCI  25
YOUNGSTOWN     MOCLDY    30  17  58 S5        30.34F WCI  25
$$

OHZ042-051>053-060>062-070>072-077>081-060200-
  SOUTHWEST OHIO

CITY           SKY/WX    TMP DP  RH WIND       PRES   REMARKS
CINC-COVINGTON MOCLDY    33  19  56 S6        30.34F WCI  28
CINC-LUNKEN    MOCLDY    36  22  56 SW5       30.37F
HAMILTON       CLOUDY    39  19  44 CALM      30.35F
DAYTON         NOT AVBL
WRIGHT-PAT AFB CLOUDY    37  20  49 S6        30.32F
DAYTON GENERAL CLOUDY    36  19  50 S7        30.32F
WILMINGTON     MOCLDY    31  22  69 S8        30.34F WCI  23
$$

OHZ036-037-039>041-045>050-054>059-063>069-073>076-082>088-060200-
  CENTRAL AND SOUTHEAST OHIO

CITY           SKY/WX    TMP DP  RH WIND       PRES   REMARKS
COLUMBUS       MOCLDY    34  16  47 SE3       30.35F
OSU AIRPORT    MOCLDY    35  19  52 S6        30.34F
BOLTON FIELD   NOT AVBL
RICKENBACK AFB NOT AVBL
NEWARK         FAIR      29  21  72 CALM      30.35F
MARION         CLOUDY    33  19  56 S9        30.32F WCI  25
LANCASTER      FAIR      28  23  81 CALM      30.36F
ZANESVILLE     FAIR      32  19  58 SE3       30.37F
NEW PHILLY     FAIR      27  20  75 SE5       30.37F WCI  22
$$




USA.gov is the U.S. government's official web portal to all federal, state and local government web resources and services.